,,PA_Meas_PMT16A,,PR_Meas_QMR101_102,,RH_Meas_QMH101,,SR_Meas_QMS101,,TA_Meas_QMH101,,GenWind,,GenWind,
time,status,PA,status,PR,status,RH,status,SR,status,TA,status,DirAvg,status,SpdAvg,
2012-08-15, 00:00:04,VALID,917.789,VALID,0,VALID,97.4806,VALID,0,VALID,19.2182,VALID,165,VALID,0,
2012-08-15, 00:01:04,VALID,917.784,VALID,0.2,VALID,97.473,VALID,0.107441,VALID,19.1973,VALID,164,VALID,0,
2012-08-15, 00:02:04,VALID,917.795,VALID,0,VALID,97.4577,VALID,0.107441,VALID,19.2168,VALID,146,VALID,0,
2012-08-15, 00:03:04,VALID,917.794,VALID,0,VALID,97.473,VALID,0,VALID,19.2182,VALID,163,VALID,0,
2012-08-15, 00:04:04,VALID,917.773,VALID,0,VALID,97.4882,VALID,0,VALID,19.2182,VALID,166,VALID,0,
2012-08-15, 00:05:04,VALID,917.81,VALID,0,VALID,97.4654,VALID,0,VALID,19.1987,VALID,161,VALID,0,
2012-08-15, 00:06:04,VALID,917.765,VALID,0,VALID,97.473,VALID,0,VALID,19.1973,VALID,165,VALID,0,
2012-08-15, 00:07:04,VALID,917.775,VALID,0,VALID,97.4654,VALID,0,VALID,19.2182,VALID,172,VALID,0,
2012-08-15, 00:08:04,VALID,917.759,VALID,0,VALID,97.4882,VALID,0,VALID,19.2377,VALID,171,VALID,0.166406,
2012-08-15, 00:09:04,VALID,917.768,VALID,0,VALID,97.4882,VALID,0,VALID,19.2168,VALID,184,VALID,0,
2012-08-15, 00:10:04,VALID,917.797,VALID,0,VALID,97.5035,VALID,0,VALID,19.2377,VALID,161,VALID,0,
2012-08-15, 00:11:04,VALID,917.8,VALID,0,VALID,97.4882,VALID,0.107441,VALID,19.2377,VALID,174,VALID,0,
2012-08-15, 00:12:04,VALID,917.787,VALID,0,VALID,97.5111,VALID,0,VALID,19.2363,VALID,184,VALID,0,
2012-08-15, 00:13:04,VALID,917.792,VALID,0,VALID,97.4882,VALID,0,VALID,19.2572,VALID,181,VALID,0,
2012-08-15, 00:14:04,VALID,917.787,VALID,0,VALID,97.4959,VALID,0,VALID,19.2572,VALID,174,VALID,0,
2012-08-15, 00:15:04,VALID,917.75,VALID,0,VALID,97.5035,VALID,0,VALID,19.2377,VALID,182,VALID,0,
2012-08-15, 00:16:04,VALID,917.733,VALID,0,VALID,97.5187,VALID,0,VALID,19.2572,VALID,182,VALID,0,
2012-08-15, 00:17:04,VALID,917.743,VALID,0,VALID,97.4959,VALID,0,VALID,19.2558,VALID,182,VALID,0,
2012-08-15, 00:18:04,VALID,917.732,VALID,0.2,VALID,97.4959,VALID,0,VALID,19.2558,VALID,182,VALID,0,
2012-08-15, 00:19:04,VALID,917.718,VALID,0,VALID,97.5035,VALID,0,VALID,19.2767,VALID,182,VALID,0,
2012-08-15, 00:20:04,VALID,917.702,VALID,0,VALID,97.5187,VALID,0,VALID,19.2753,VALID,182,VALID,0,
2012-08-15, 00:21:04,VALID,917.629,VALID,0,VALID,97.5111,VALID,0,VALID,19.2753,VALID,182,VALID,0,
2012-08-15, 00:22:04,VALID,917.601,VALID,0,VALID,97.5187,VALID,0,VALID,19.2962,VALID,182,VALID,0,
2012-08-15, 00:23:04,VALID,917.569,VALID,0,VALID,97.5264,VALID,0,VALID,19.3547,VALID,182,VALID,0,
2012-08-15, 00:24:04,VALID,917.532,VALID,0,VALID,97.5111,VALID,0,VALID,19.3547,VALID,182,VALID,0,
2012-08-15, 00:25:04,VALID,917.549,VALID,0,VALID,97.5111,VALID,0,VALID,19.2962,VALID,182,VALID,0,
2012-08-15, 00:26:04,VALID,917.543,VALID,0,VALID,97.534,VALID,0,VALID,19.2572,VALID,100,VALID,0,
2012-08-15, 00:27:04,VALID,917.539,VALID,0,VALID,97.5111,VALID,0,VALID,19.2558,VALID,75,VALID,0,
2012-08-15, 00:28:04,VALID,917.531,VALID,0,VALID,97.5264,VALID,0,VALID,19.2168,VALID,75,VALID,0,
2012-08-15, 00:29:04,VALID,917.504,VALID,0,VALID,97.5264,VALID,0,VALID,19.1973,VALID,75,VALID,0,
2012-08-15, 00:30:04,VALID,917.514,VALID,0,VALID,97.5264,VALID,0.107441,VALID,19.1973,VALID,75,VALID,0,
2012-08-15, 00:31:04,VALID,917.456,VALID,0,VALID,97.5416,VALID,0,VALID,19.1973,VALID,75,VALID,0,
2012-08-15, 00:32:04,VALID,917.427,VALID,0,VALID,97.5416,VALID,0,VALID,19.2572,VALID,75,VALID,0,
2012-08-15, 00:33:04,VALID,917.392,VALID,0,VALID,97.5416,VALID,0,VALID,19.2767,VALID,75,VALID,0,
2012-08-15, 00:34:04,VALID,917.381,VALID,0,VALID,97.5416,VALID,0,VALID,19.2377,VALID,118,VALID,0,
2012-08-15, 00:35:04,VALID,917.368,VALID,0,VALID,97.5492,VALID,0,VALID,19.1583,VALID,127,VALID,0,
2012-08-15, 00:36:04,VALID,917.377,VALID,0,VALID,97.5416,VALID,0,VALID,19.1583,VALID,127,VALID,0,
2012-08-15, 00:37:04,VALID,917.363,VALID,0,VALID,97.5416,VALID,0,VALID,19.1987,VALID,127,VALID,0,
2012-08-15, 00:38:04,VALID,917.399,VALID,0,VALID,97.5569,VALID,0,VALID,19.1583,VALID,127,VALID,0,
2012-08-15, 00:39:04,VALID,917.397,VALID,0,VALID,97.534,VALID,0,VALID,19.1792,VALID,95,VALID,0,
2012-08-15, 00:40:04,VALID,917.372,VALID,0,VALID,97.5645,VALID,0,VALID,19.1597,VALID,93,VALID,0,
2012-08-15, 00:41:04,VALID,917.346,VALID,0,VALID,97.5416,VALID,0,VALID,19.1388,VALID,93,VALID,0,
2012-08-15, 00:42:04,VALID,917.335,VALID,0,VALID,97.5645,VALID,0,VALID,19.1597,VALID,93,VALID,0,
2012-08-15, 00:43:04,VALID,917.28,VALID,0,VALID,97.5645,VALID,0,VALID,19.1597,VALID,93,VALID,0,
2012-08-15, 00:44:04,VALID,917.232,VALID,0,VALID,97.5569,VALID,0,VALID,19.1597,VALID,94,VALID,0,
2012-08-15, 00:45:04,VALID,917.203,VALID,0,VALID,97.5569,VALID,0,VALID,19.1792,VALID,93,VALID,0,
2012-08-15, 00:46:04,VALID,917.184,VALID,0,VALID,97.5645,VALID,0,VALID,19.1597,VALID,93,VALID,0,
2012-08-15, 00:47:04,VALID,917.18,VALID,0,VALID,97.5873,VALID,0,VALID,19.1388,VALID,93,VALID,0,
2012-08-15, 00:48:04,VALID,917.208,VALID,0,VALID,97.5721,VALID,0,VALID,19.1388,VALID,93,VALID,0,
2012-08-15, 00:49:04,VALID,917.206,VALID,0,VALID,97.5797,VALID,0,VALID,19.1792,VALID,94,VALID,0,
2012-08-15, 00:50:04,VALID,917.223,VALID,0,VALID,97.5797,VALID,0,VALID,19.1583,VALID,93,VALID,0,
2012-08-15, 00:51:04,VALID,917.273,VALID,0.2,VALID,97.5721,VALID,0,VALID,19.1583,VALID,94,VALID,0,
2012-08-15, 00:52:04,VALID,917.248,VALID,0,VALID,97.5721,VALID,0,VALID,19.1778,VALID,93,VALID,0,
2012-08-15, 00:53:04,VALID,917.242,VALID,0,VALID,97.595,VALID,0,VALID,19.1987,VALID,93,VALID,0,
2012-08-15, 00:54:04,VALID,917.228,VALID,0,VALID,97.5721,VALID,0,VALID,19.2182,VALID,93,VALID,0,
2012-08-15, 00:55:04,VALID,917.202,VALID,0,VALID,97.5797,VALID,0,VALID,19.1597,VALID,93,VALID,0,
2012-08-15, 00:56:04,VALID,917.168,VALID,0,VALID,97.5873,VALID,0,VALID,19.1207,VALID,93,VALID,0,
2012-08-15, 00:57:04,VALID,917.2,VALID,0,VALID,97.595,VALID,0,VALID,19.0998,VALID,93,VALID,0,
2012-08-15, 00:58:04,VALID,917.189,VALID,0,VALID,97.5797,VALID,0,VALID,19.0998,VALID,93,VALID,0,
2012-08-15, 00:59:04,VALID,917.187,VALID,0,VALID,97.6026,VALID,0,VALID,19.1012,VALID,93,VALID,0,
2012-08-15, 01:00:04,VALID,917.175,VALID,0,VALID,97.5797,VALID,0,VALID,19.1012,VALID,93,VALID,0,
2012-08-15, 01:01:04,VALID,917.199,VALID,0,VALID,97.595,VALID,0,VALID,19.0817,VALID,93,VALID,0,
2012-08-15, 01:02:04,VALID,917.216,VALID,0,VALID,97.6178,VALID,0,VALID,19.0037,VALID,93,VALID,0,
2012-08-15, 01:03:04,VALID,917.205,VALID,0,VALID,97.6026,VALID,0,VALID,18.9647,VALID,93,VALID,0,
2012-08-15, 01:04:04,VALID,917.203,VALID,0,VALID,97.6102,VALID,0,VALID,19.0037,VALID,117,VALID,0,
2012-08-15, 01:05:04,VALID,917.23,VALID,0,VALID,97.6255,VALID,0,VALID,18.9647,VALID,117,VALID,0,
2012-08-15, 01:06:04,VALID,917.24,VALID,0,VALID,97.6102,VALID,0,VALID,18.9243,VALID,115,VALID,0,
2012-08-15, 01:07:04,VALID,917.212,VALID,0,VALID,97.6178,VALID,0,VALID,18.9452,VALID,117,VALID,0,
2012-08-15, 01:08:04,VALID,917.179,VALID,0,VALID,97.6102,VALID,0,VALID,18.9452,VALID,117,VALID,0,
2012-08-15, 01:09:04,VALID,917.191,VALID,0,VALID,97.6331,VALID,0,VALID,18.9243,VALID,117,VALID,0,
2012-08-15, 01:10:04,VALID,917.138,VALID,0,VALID,97.6407,VALID,0,VALID,18.9452,VALID,117,VALID,0,
2012-08-15, 01:11:04,VALID,917.091,VALID,0,VALID,97.6178,VALID,0,VALID,19.0037,VALID,117,VALID,0,
2012-08-15, 01:12:04,VALID,917.099,VALID,0,VALID,97.6255,VALID,0,VALID,18.9842,VALID,117,VALID,0,
2012-08-15, 01:13:04,VALID,917.06,VALID,0,VALID,97.6331,VALID,0.107441,VALID,18.9438,VALID,117,VALID,0,
2012-08-15, 01:14:04,VALID,917.053,VALID,0,VALID,97.6636,VALID,0,VALID,18.9647,VALID,117,VALID,0,
2012-08-15, 01:15:04,VALID,917.064,VALID,0,VALID,97.6331,VALID,0,VALID,18.9452,VALID,117,VALID,0,
2012-08-15, 01:16:04,VALID,917.025,VALID,0,VALID,97.6331,VALID,0,VALID,18.9647,VALID,117,VALID,0,
2012-08-15, 01:17:04,VALID,917.022,VALID,0,VALID,97.6712,VALID,0,VALID,18.9842,VALID,117,VALID,0,
2012-08-15, 01:18:04,VALID,916.962,VALID,0,VALID,97.656,VALID,0,VALID,18.9452,VALID,117,VALID,0,
2012-08-15, 01:19:04,VALID,916.931,VALID,0,VALID,97.6407,VALID,0,VALID,18.9647,VALID,125,VALID,0,
2012-08-15, 01:20:04,VALID,916.887,VALID,0,VALID,97.656,VALID,0.107441,VALID,18.9842,VALID,122,VALID,0,
2012-08-15, 01:21:04,VALID,916.864,VALID,0,VALID,97.6712,VALID,0,VALID,18.9438,VALID,122,VALID,0,
2012-08-15, 01:22:04,VALID,916.841,VALID,0,VALID,97.6636,VALID,0,VALID,18.9452,VALID,119,VALID,0,
2012-08-15, 01:23:04,VALID,916.842,VALID,0,VALID,97.6407,VALID,0,VALID,18.9438,VALID,119,VALID,0,
2012-08-15, 01:24:04,VALID,916.769,VALID,0,VALID,97.656,VALID,0,VALID,18.9842,VALID,118,VALID,0,
2012-08-15, 01:25:04,VALID,916.793,VALID,0,VALID,97.6483,VALID,0.107441,VALID,18.9243,VALID,119,VALID,0,
2012-08-15, 01:26:04,VALID,916.774,VALID,0,VALID,97.656,VALID,0,VALID,18.9842,VALID,118,VALID,0,
2012-08-15, 01:27:04,VALID,916.749,VALID,0,VALID,97.6712,VALID,0,VALID,18.9842,VALID,119,VALID,0,
2012-08-15, 01:28:04,VALID,916.749,VALID,0,VALID,97.6788,VALID,0,VALID,18.9842,VALID,119,VALID,0,
2012-08-15, 01:29:04,VALID,916.724,VALID,0,VALID,97.6788,VALID,0.107441,VALID,19.0037,VALID,119,VALID,0,
2012-08-15, 01:30:04,VALID,916.722,VALID,0,VALID,97.6483,VALID,0,VALID,18.9647,VALID,119,VALID,0,
2012-08-15, 01:31:04,VALID,916.699,VALID,0,VALID,97.6712,VALID,0,VALID,18.9048,VALID,119,VALID,0,
2012-08-15, 01:32:04,VALID,916.649,VALID,0,VALID,97.6788,VALID,0,VALID,18.9452,VALID,119,VALID,0,
2012-08-15, 01:33:04,VALID,916.649,VALID,0,VALID,97.6865,VALID,0.107441,VALID,18.9048,VALID,119,VALID,0,
2012-08-15, 01:34:04,VALID,916.65,VALID,0,VALID,97.7017,VALID,0,VALID,18.8853,VALID,119,VALID,0,
2012-08-15, 01:35:04,VALID,916.646,VALID,0,VALID,97.6865,VALID,0,VALID,18.8672,VALID,119,VALID,0,
2012-08-15, 01:36:04,VALID,916.658,VALID,0,VALID,97.7017,VALID,0,VALID,18.8463,VALID,118,VALID,0,
2012-08-15, 01:37:04,VALID,916.632,VALID,0,VALID,97.6865,VALID,0,VALID,18.8282,VALID,118,VALID,0,
2012-08-15, 01:38:04,VALID,916.599,VALID,0,VALID,97.6941,VALID,0,VALID,18.8282,VALID,98,VALID,0,
2012-08-15, 01:39:04,VALID,916.592,VALID,0,VALID,97.6865,VALID,0,VALID,18.8087,VALID,116,VALID,0,
2012-08-15, 01:40:04,VALID,916.551,VALID,0,VALID,97.6788,VALID,0,VALID,18.8087,VALID,112,VALID,0,
2012-08-15, 01:41:04,VALID,916.557,VALID,0,VALID,97.6788,VALID,0,VALID,18.7892,VALID,119,VALID,0,
2012-08-15, 01:42:04,VALID,916.517,VALID,0,VALID,97.7017,VALID,0,VALID,18.7892,VALID,135,VALID,0,
2012-08-15, 01:43:04,VALID,916.51,VALID,0,VALID,97.7017,VALID,0,VALID,18.7683,VALID,135,VALID,0,
2012-08-15, 01:44:04,VALID,916.51,VALID,0,VALID,97.6865,VALID,0,VALID,18.8087,VALID,134,VALID,0,
2012-08-15, 01:45:04,VALID,916.512,VALID,0,VALID,97.7017,VALID,0,VALID,18.8282,VALID,135,VALID,0,
2012-08-15, 01:46:04,VALID,916.509,VALID,0,VALID,97.7017,VALID,0,VALID,18.8672,VALID,150,VALID,0,
2012-08-15, 01:47:04,VALID,916.494,VALID,0,VALID,97.7017,VALID,0,VALID,18.8477,VALID,160,VALID,0,
2012-08-15, 01:48:04,VALID,916.521,VALID,0,VALID,97.6788,VALID,0,VALID,18.8867,VALID,163,VALID,0,
2012-08-15, 01:49:04,VALID,916.483,VALID,0,VALID,97.7169,VALID,0,VALID,18.8867,VALID,142,VALID,0,
2012-08-15, 01:50:04,VALID,916.453,VALID,0,VALID,97.7093,VALID,0,VALID,18.9257,VALID,150,VALID,0,
2012-08-15, 01:51:04,VALID,916.443,VALID,0,VALID,97.7169,VALID,0,VALID,18.9257,VALID,141,VALID,0,
2012-08-15, 01:52:04,VALID,916.454,VALID,0,VALID,97.7093,VALID,0,VALID,18.9062,VALID,140,VALID,0,
2012-08-15, 01:53:04,VALID,916.401,VALID,0,VALID,97.7093,VALID,0,VALID,18.9062,VALID,138,VALID,0,
2012-08-15, 01:54:04,VALID,916.433,VALID,0,VALID,97.7017,VALID,0,VALID,18.8867,VALID,138,VALID,0,
2012-08-15, 01:55:04,VALID,916.392,VALID,0,VALID,97.7093,VALID,0,VALID,18.8672,VALID,120,VALID,0,
2012-08-15, 01:56:04,VALID,916.438,VALID,0,VALID,97.7093,VALID,0,VALID,18.8268,VALID,125,VALID,0,
2012-08-15, 01:57:04,VALID,916.449,VALID,0,VALID,97.7093,VALID,0,VALID,18.8477,VALID,128,VALID,0,
2012-08-15, 01:58:04,VALID,916.464,VALID,0,VALID,97.7322,VALID,0,VALID,18.8477,VALID,127,VALID,0,
2012-08-15, 01:59:04,VALID,916.498,VALID,0,VALID,97.7169,VALID,0,VALID,18.8282,VALID,127,VALID,0,
2012-08-15, 02:00:04,VALID,916.478,VALID,0,VALID,97.7398,VALID,0.107441,VALID,18.8477,VALID,118,VALID,0,
2012-08-15, 02:01:04,VALID,916.474,VALID,0,VALID,97.7322,VALID,0,VALID,18.7878,VALID,118,VALID,0,
2012-08-15, 02:02:04,VALID,916.497,VALID,0,VALID,97.7474,VALID,0,VALID,18.8087,VALID,118,VALID,0,
2012-08-15, 02:03:04,VALID,916.495,VALID,0,VALID,97.7322,VALID,0,VALID,18.7697,VALID,118,VALID,0,
2012-08-15, 02:04:04,VALID,916.477,VALID,0,VALID,97.7246,VALID,0,VALID,18.7503,VALID,119,VALID,0,
2012-08-15, 02:05:04,VALID,916.455,VALID,0,VALID,97.7246,VALID,0,VALID,18.7503,VALID,118,VALID,0,
2012-08-15, 02:06:04,VALID,916.439,VALID,0,VALID,97.7169,VALID,0,VALID,18.7503,VALID,118,VALID,0,
2012-08-15, 02:07:04,VALID,916.411,VALID,0,VALID,97.7398,VALID,0,VALID,18.7503,VALID,118,VALID,0,
2012-08-15, 02:08:04,VALID,916.358,VALID,0,VALID,97.7398,VALID,0,VALID,18.7293,VALID,118,VALID,0,
2012-08-15, 02:09:04,VALID,916.331,VALID,0,VALID,97.7398,VALID,0,VALID,18.7892,VALID,118,VALID,0,
2012-08-15, 02:10:04,VALID,916.277,VALID,0,VALID,97.7322,VALID,0,VALID,18.8087,VALID,118,VALID,0,
2012-08-15, 02:11:04,VALID,916.244,VALID,0,VALID,97.7322,VALID,0,VALID,18.7892,VALID,118,VALID,0,
2012-08-15, 02:12:04,VALID,916.202,VALID,0,VALID,97.7246,VALID,0,VALID,18.7503,VALID,129,VALID,0,
2012-08-15, 02:13:04,VALID,916.183,VALID,0,VALID,97.7551,VALID,0,VALID,18.7503,VALID,129,VALID,0,
2012-08-15, 02:14:04,VALID,916.138,VALID,0,VALID,97.7627,VALID,0,VALID,18.7308,VALID,127,VALID,0,
2012-08-15, 02:15:04,VALID,916.108,VALID,0,VALID,97.7398,VALID,0,VALID,18.6918,VALID,128,VALID,0,
2012-08-15, 02:16:04,VALID,916.118,VALID,0,VALID,97.7474,VALID,0,VALID,18.6918,VALID,132,VALID,0,
2012-08-15, 02:17:04,VALID,916.1,VALID,0,VALID,97.7551,VALID,0,VALID,18.6918,VALID,120,VALID,0,
2012-08-15, 02:18:04,VALID,916.097,VALID,0,VALID,97.7551,VALID,0,VALID,18.6723,VALID,129,VALID,0,
2012-08-15, 02:19:04,VALID,916.136,VALID,0,VALID,97.7551,VALID,0,VALID,18.6723,VALID,133,VALID,0,
2012-08-15, 02:20:04,VALID,916.16,VALID,0,VALID,97.7551,VALID,0,VALID,18.7113,VALID,133,VALID,0,
2012-08-15, 02:21:04,VALID,916.157,VALID,0,VALID,97.7474,VALID,0,VALID,18.6918,VALID,133,VALID,0,
2012-08-15, 02:22:04,VALID,916.141,VALID,0,VALID,97.7551,VALID,0,VALID,18.7113,VALID,133,VALID,0,
2012-08-15, 02:23:04,VALID,916.144,VALID,0,VALID,97.7551,VALID,0,VALID,18.7308,VALID,133,VALID,0,
2012-08-15, 02:24:04,VALID,916.11,VALID,0,VALID,97.7703,VALID,0,VALID,18.7113,VALID,133,VALID,0,
2012-08-15, 02:25:04,VALID,916.135,VALID,0,VALID,97.7627,VALID,0,VALID,18.7113,VALID,133,VALID,0,
2012-08-15, 02:26:04,VALID,916.109,VALID,0,VALID,97.7474,VALID,0,VALID,18.6918,VALID,133,VALID,0,
2012-08-15, 02:27:04,VALID,916.089,VALID,0,VALID,97.7627,VALID,0,VALID,18.6918,VALID,129,VALID,0,
2012-08-15, 02:28:04,VALID,916.089,VALID,0,VALID,97.7703,VALID,0,VALID,18.6918,VALID,130,VALID,0,
2012-08-15, 02:29:04,VALID,916.081,VALID,0,VALID,97.7703,VALID,0,VALID,18.6723,VALID,130,VALID,0,
2012-08-15, 02:30:04,VALID,916.092,VALID,0,VALID,97.7551,VALID,0,VALID,18.6723,VALID,130,VALID,0,
2012-08-15, 02:31:04,VALID,916.061,VALID,0,VALID,97.7703,VALID,0,VALID,18.6528,VALID,130,VALID,0,
2012-08-15, 02:32:04,VALID,916.094,VALID,0,VALID,97.7856,VALID,0,VALID,18.6528,VALID,130,VALID,0,
2012-08-15, 02:33:04,VALID,916.127,VALID,0,VALID,97.7932,VALID,0,VALID,18.6528,VALID,130,VALID,0,
2012-08-15, 02:34:04,VALID,916.146,VALID,0,VALID,97.7703,VALID,0,VALID,18.6723,VALID,130,VALID,0,
2012-08-15, 02:35:04,VALID,916.136,VALID,0,VALID,97.7703,VALID,0,VALID,18.6528,VALID,129,VALID,0,
2012-08-15, 02:36:04,VALID,916.121,VALID,0,VALID,97.7551,VALID,0,VALID,18.6528,VALID,129,VALID,0,
2012-08-15, 02:37:04,VALID,916.112,VALID,0,VALID,97.7779,VALID,0,VALID,18.6319,VALID,129,VALID,0,
2012-08-15, 02:38:04,VALID,916.069,VALID,0,VALID,97.7779,VALID,0,VALID,18.6528,VALID,129,VALID,0,
2012-08-15, 02:39:04,VALID,916.063,VALID,0,VALID,97.7856,VALID,0,VALID,18.6723,VALID,129,VALID,0,
2012-08-15, 02:40:04,VALID,916.052,VALID,0,VALID,97.7627,VALID,0,VALID,18.6918,VALID,129,VALID,0,
2012-08-15, 02:41:04,VALID,916.062,VALID,0,VALID,97.7779,VALID,0,VALID,18.6723,VALID,129,VALID,0,
2012-08-15, 02:42:04,VALID,916.041,VALID,0,VALID,97.7703,VALID,0,VALID,18.6723,VALID,129,VALID,0,
2012-08-15, 02:43:04,VALID,916.067,VALID,0,VALID,97.7779,VALID,0,VALID,18.6723,VALID,129,VALID,0,
2012-08-15, 02:44:04,VALID,916.082,VALID,0,VALID,97.7627,VALID,0,VALID,18.6333,VALID,129,VALID,0,
2012-08-15, 02:45:04,VALID,916.081,VALID,0,VALID,97.7779,VALID,0,VALID,18.5553,VALID,129,VALID,0,
2012-08-15, 02:46:04,VALID,916.088,VALID,0,VALID,97.7627,VALID,0,VALID,18.5943,VALID,129,VALID,0,
2012-08-15, 02:47:04,VALID,916.073,VALID,0,VALID,97.7779,VALID,0,VALID,18.6138,VALID,129,VALID,0,
2012-08-15, 02:48:04,VALID,916.08,VALID,0,VALID,97.7932,VALID,0,VALID,18.5929,VALID,129,VALID,0,
2012-08-15, 02:49:04,VALID,916.056,VALID,0,VALID,97.7932,VALID,0,VALID,18.6138,VALID,129,VALID,0,
2012-08-15, 02:50:04,VALID,916.02,VALID,0,VALID,97.7856,VALID,0,VALID,18.6138,VALID,129,VALID,0,
2012-08-15, 02:51:04,VALID,916.03,VALID,0,VALID,97.8008,VALID,0,VALID,18.6138,VALID,129,VALID,0,
2012-08-15, 02:52:04,VALID,916.001,VALID,0,VALID,97.7779,VALID,0,VALID,18.6333,VALID,129,VALID,0,
2012-08-15, 02:53:04,VALID,915.993,VALID,0,VALID,97.7932,VALID,0,VALID,18.6333,VALID,129,VALID,0,
2012-08-15, 02:54:04,VALID,915.984,VALID,0,VALID,97.7856,VALID,0,VALID,18.6333,VALID,129,VALID,0,
2012-08-15, 02:55:04,VALID,915.995,VALID,0,VALID,97.7932,VALID,0,VALID,18.6528,VALID,129,VALID,0,
2012-08-15, 02:56:04,VALID,915.985,VALID,0,VALID,97.8008,VALID,0,VALID,18.6723,VALID,129,VALID,0,
2012-08-15, 02:57:04,VALID,916.011,VALID,0,VALID,97.7932,VALID,0,VALID,18.6723,VALID,129,VALID,0,
2012-08-15, 02:58:04,VALID,916.03,VALID,0,VALID,97.7932,VALID,0,VALID,18.6319,VALID,129,VALID,0,
2012-08-15, 02:59:04,VALID,916.027,VALID,0,VALID,97.8008,VALID,0,VALID,18.6333,VALID,129,VALID,0,
2012-08-15, 03:00:04,VALID,916.026,VALID,0,VALID,97.7779,VALID,0,VALID,18.6528,VALID,129,VALID,0,
2012-08-15, 03:01:04,VALID,916.014,VALID,0,VALID,97.7779,VALID,0,VALID,18.6528,VALID,129,VALID,0,
2012-08-15, 03:02:04,VALID,916.002,VALID,0,VALID,97.7856,VALID,0,VALID,18.6333,VALID,129,VALID,0,
2012-08-15, 03:03:04,VALID,915.991,VALID,0,VALID,97.8008,VALID,0,VALID,18.6333,VALID,129,VALID,0,
2012-08-15, 03:04:04,VALID,915.978,VALID,0,VALID,97.7779,VALID,0,VALID,18.6138,VALID,129,VALID,0,
2012-08-15, 03:05:04,VALID,915.958,VALID,0,VALID,97.7856,VALID,0,VALID,18.6333,VALID,129,VALID,0,
2012-08-15, 03:06:04,VALID,915.918,VALID,0,VALID,97.8008,VALID,0,VALID,18.6138,VALID,129,VALID,0,
2012-08-15, 03:07:04,VALID,915.881,VALID,0,VALID,97.7703,VALID,0,VALID,18.6333,VALID,129,VALID,0,
2012-08-15, 03:08:04,VALID,915.867,VALID,0,VALID,97.7932,VALID,0,VALID,18.5943,VALID,129,VALID,0,
2012-08-15, 03:09:04,VALID,915.825,VALID,0,VALID,97.8084,VALID,0,VALID,18.5748,VALID,129,VALID,0,
2012-08-15, 03:10:04,VALID,915.763,VALID,0,VALID,97.7703,VALID,0,VALID,18.5553,VALID,129,VALID,0,
2012-08-15, 03:11:04,VALID,915.709,VALID,0,VALID,97.7932,VALID,0.107441,VALID,18.5748,VALID,129,VALID,0,
2012-08-15, 03:12:04,VALID,915.685,VALID,0,VALID,97.7932,VALID,0,VALID,18.5762,VALID,129,VALID,0,
2012-08-15, 03:13:04,VALID,915.641,VALID,0,VALID,97.8084,VALID,0,VALID,18.5553,VALID,129,VALID,0,
2012-08-15, 03:14:04,VALID,915.602,VALID,0,VALID,97.7779,VALID,0,VALID,18.5358,VALID,145,VALID,0,
2012-08-15, 03:15:04,VALID,915.565,VALID,0,VALID,97.8008,VALID,0,VALID,18.5553,VALID,156,VALID,0,
2012-08-15, 03:16:04,VALID,915.562,VALID,0,VALID,97.816,VALID,0,VALID,18.5748,VALID,156,VALID,0,
2012-08-15, 03:17:04,VALID,915.547,VALID,0,VALID,97.8008,VALID,0,VALID,18.5943,VALID,156,VALID,0,
2012-08-15, 03:18:04,VALID,915.499,VALID,0,VALID,97.8084,VALID,0.107441,VALID,18.5943,VALID,156,VALID,0,
2012-08-15, 03:19:04,VALID,915.462,VALID,0,VALID,97.7932,VALID,0,VALID,18.6138,VALID,156,VALID,0,
2012-08-15, 03:20:04,VALID,915.463,VALID,0,VALID,97.8008,VALID,0,VALID,18.6333,VALID,156,VALID,0,
2012-08-15, 03:21:04,VALID,915.439,VALID,0,VALID,97.8008,VALID,0,VALID,18.6333,VALID,156,VALID,0,
2012-08-15, 03:22:04,VALID,915.417,VALID,0,VALID,97.7932,VALID,0,VALID,18.6333,VALID,156,VALID,0,
2012-08-15, 03:23:04,VALID,915.388,VALID,0,VALID,97.7932,VALID,0,VALID,18.6528,VALID,156,VALID,0,
2012-08-15, 03:24:04,VALID,915.345,VALID,0,VALID,97.7856,VALID,0,VALID,18.6333,VALID,156,VALID,0,
2012-08-15, 03:25:04,VALID,915.312,VALID,0,VALID,97.7856,VALID,0,VALID,18.6333,VALID,156,VALID,0,
2012-08-15, 03:26:04,VALID,915.276,VALID,0,VALID,97.7932,VALID,0,VALID,18.5553,VALID,156,VALID,0,
2012-08-15, 03:27:04,VALID,915.311,VALID,0,VALID,97.8084,VALID,0,VALID,18.5553,VALID,155,VALID,0,
2012-08-15, 03:28:04,VALID,915.277,VALID,0,VALID,97.8008,VALID,0,VALID,18.5358,VALID,156,VALID,0,
2012-08-15, 03:29:04,VALID,915.296,VALID,0,VALID,97.7932,VALID,0,VALID,18.5553,VALID,146,VALID,0,
2012-08-15, 03:30:04,VALID,915.343,VALID,0,VALID,97.8008,VALID,0,VALID,18.5358,VALID,133,VALID,0,
2012-08-15, 03:31:04,VALID,915.365,VALID,0,VALID,97.7856,VALID,0,VALID,18.5553,VALID,165,VALID,0,
2012-08-15, 03:32:04,VALID,915.414,VALID,0,VALID,97.7779,VALID,0,VALID,18.5748,VALID,127,VALID,0,
2012-08-15, 03:33:04,VALID,915.428,VALID,0,VALID,97.8084,VALID,0,VALID,18.6333,VALID,126,VALID,0.00429688,
2012-08-15, 03:34:04,VALID,915.467,VALID,0,VALID,97.8008,VALID,0,VALID,18.6138,VALID,127,VALID,0,
2012-08-15, 03:35:04,VALID,915.457,VALID,0,VALID,97.7932,VALID,0,VALID,18.5943,VALID,122,VALID,0,
2012-08-15, 03:36:04,VALID,915.49,VALID,0,VALID,97.816,VALID,0,VALID,18.5943,VALID,115,VALID,0.280859,
2012-08-15, 03:37:04,VALID,915.468,VALID,0,VALID,97.8084,VALID,0,VALID,18.5358,VALID,129,VALID,0.00351562,
2012-08-15, 03:38:04,VALID,915.456,VALID,0,VALID,97.7932,VALID,0,VALID,18.5163,VALID,131,VALID,0,
2012-08-15, 03:39:04,VALID,915.456,VALID,0,VALID,97.816,VALID,0,VALID,18.5358,VALID,132,VALID,0,
2012-08-15, 03:40:04,VALID,915.479,VALID,0,VALID,97.8008,VALID,0,VALID,18.5358,VALID,120,VALID,0,
2012-08-15, 03:41:04,VALID,915.479,VALID,0,VALID,97.8084,VALID,0,VALID,18.5553,VALID,108,VALID,0,
2012-08-15, 03:42:04,VALID,915.501,VALID,0,VALID,97.816,VALID,0,VALID,18.5553,VALID,129,VALID,0,
2012-08-15, 03:43:04,VALID,915.526,VALID,0,VALID,97.7932,VALID,0,VALID,18.5943,VALID,106,VALID,0,
2012-08-15, 03:44:04,VALID,915.52,VALID,0,VALID,97.8237,VALID,0,VALID,18.6138,VALID,116,VALID,0,
2012-08-15, 03:45:04,VALID,915.56,VALID,0,VALID,97.8008,VALID,0,VALID,18.6138,VALID,121,VALID,0,
2012-08-15, 03:46:04,VALID,915.525,VALID,0,VALID,97.816,VALID,0,VALID,18.6333,VALID,130,VALID,0,
2012-08-15, 03:47:04,VALID,915.559,VALID,0,VALID,97.8313,VALID,0,VALID,18.6542,VALID,135,VALID,0,
2012-08-15, 03:48:04,VALID,915.564,VALID,0,VALID,97.8008,VALID,0.107441,VALID,18.6124,VALID,135,VALID,0,
2012-08-15, 03:49:04,VALID,915.598,VALID,0,VALID,97.8008,VALID,0,VALID,18.6528,VALID,117,VALID,0,
2012-08-15, 03:50:04,VALID,915.632,VALID,0,VALID,97.8237,VALID,0,VALID,18.6528,VALID,130,VALID,0,
2012-08-15, 03:51:04,VALID,915.666,VALID,0,VALID,97.8084,VALID,0,VALID,18.6723,VALID,123,VALID,0,
2012-08-15, 03:52:04,VALID,915.709,VALID,0,VALID,97.8313,VALID,0,VALID,18.6737,VALID,124,VALID,0,
2012-08-15, 03:53:04,VALID,915.718,VALID,0,VALID,97.816,VALID,0,VALID,18.6528,VALID,96,VALID,0,
2012-08-15, 03:54:04,VALID,915.705,VALID,0,VALID,97.8313,VALID,0,VALID,18.6723,VALID,112,VALID,0,
2012-08-15, 03:55:04,VALID,915.697,VALID,0,VALID,97.816,VALID,0,VALID,18.6723,VALID,112,VALID,0,
2012-08-15, 03:56:04,VALID,915.72,VALID,0,VALID,97.816,VALID,0,VALID,18.6932,VALID,112,VALID,0,
2012-08-15, 03:57:04,VALID,915.69,VALID,0,VALID,97.8237,VALID,0,VALID,18.7127,VALID,112,VALID,0,
2012-08-15, 03:58:04,VALID,915.721,VALID,0,VALID,97.8008,VALID,0,VALID,18.7322,VALID,112,VALID,0,
2012-08-15, 03:59:04,VALID,915.665,VALID,0,VALID,97.816,VALID,0,VALID,18.6723,VALID,112,VALID,0,